Regional Weather Roundup
Issued by NWS

Home | Current Version | Previous Version | Text Only | Print | Product List | Glossary Off
Versions: 1 2 3 4 5 6 7 8 9 10 11 12 13 14 15 16 17 18 19 20 21 22 23 24 25 26 27 28 29 30 31 32 33 34 35 36 37 38 39 40 41 42 43 44 45 46 47 48 49 50

000
ASUS43 KTOP 210008
RWRKS

WEATHER ROUNDUP FOR KANSAS
NATIONAL WEATHER SERVICE GOODLAND KS
600 PM CST FRI JAN 20 2017

NOTE:  "FAIR" INDICATES FEW OR NO CLOUDS BELOW 12,000 FEET WITH NO
SIGNIFICANT WEATHER AND/OR OBSTRUCTIONS TO VISIBILITY.

KSZ001>006-013>018-027>032-041>047-210100-
NORTHWEST KANSAS

CITY           SKY/WX    TMP DP  RH WIND       PRES   REMARKS
GOODLAND       CLOUDY    35  34  96 SW9       29.40R
6HR MIN TEMP:  32; 6HR MAX TEMP:  36; 6HR PCP:  0.04;

HAYS           CLOUDY    44  37  76 W7        29.42R
HILL CITY      CLOUDY    42  37  82 CALM      29.41R
6HR MIN TEMP:  42; 6HR MAX TEMP:  45;

RUSSELL        CLOUDY    46  41  82 CALM      29.40R
6HR MIN TEMP:  45; 6HR MAX TEMP:  48;

$$

KSZ061>065-074>080-084>089-210100-
SOUTHWEST KANSAS

CITY           SKY/WX    TMP DP  RH WIND       PRES   REMARKS
DODGE CITY     PTCLDY    43  37  79 W12       29.42R
6HR MIN TEMP:  43; 6HR MAX TEMP:  52;

ELKHART          N/A     40  27  60 NW10        N/A  WCI  33
GARDEN CITY    CLOUDY    39  33  79 NW14      29.43R WCI  31
6HR MIN TEMP:  39; 6HR MAX TEMP:  48; 6HR PCP: TRACE;

GREAT BEND     LGT RAIN  46  43  87 CALM      29.41R
LIBERAL        CLEAR     41  30  65 NW12      29.47R
PRATT          MOCLDY    41  38  89 S6        29.42R
6HR MIN TEMP:  41; 6HR MAX TEMP:  46;

$$

KSZ066>073-081>083-090>101-210100-
SOUTHEAST KANSAS

CITY           SKY/WX    TMP DP  RH WIND       PRES   REMARKS
CHANUTE        CLEAR     56  40  55 SW17G23   29.47R
6HR MIN TEMP:  53; 6HR MAX TEMP:  60;

COFFEYVILLE    CLEAR     57  41  55 W10       29.49R
6HR MIN TEMP:  55; 6HR MAX TEMP:  65;

HUTCHINSON     CLOUDY    47  43  86 S6        29.41F
6HR MIN TEMP:  46; 6HR MAX TEMP:  50;

MEDICINE LODGE   N/A     45  41  86 SE6       29.40S
NEWTON         MOCLDY    45  43  93 SW8       29.44R
PARSONS        CLEAR     56  40  55 SW13      29.49R
6HR MIN TEMP:  55; 6HR MAX TEMP:  63;

WICHITA INTL   PTCLDY    41  39  93 S15       29.44S
6HR MIN TEMP:  41; 6HR MAX TEMP:  52;

WICHITA JABRA  PTCLDY    42  41  96 S7        29.44F
6HR MIN TEMP:  42; 6HR MAX TEMP:  52;

WICHITA MCCONL MOCLDY    44  41  90 S8        29.45R
WINFIELD       CLEAR     45  40  82 E3        29.46F
6HR MIN TEMP:  45; 6HR MAX TEMP:  56;

$$

KSZ007>012-019>026-033>040-048>060-102>105-210100-
NORTHEAST KANSAS

CITY           SKY/WX    TMP DP  RH WIND       PRES   REMARKS
CONCORDIA      CLOUDY    45  45 100 S3        29.41R FOG
6HR MIN TEMP:  43; 6HR MAX TEMP:  46; 6HR PCP:  0.01;

EMPORIA        CLOUDY    49  45  86 S5        29.44R
6HR MIN TEMP:  48; 6HR MAX TEMP:  52;

LAWRENCE       CLOUDY    50  49  96 SE6       29.46R
6HR MIN TEMP:  49; 6HR MAX TEMP:  53; 6HR PCP:  0.01;

MANHATTAN      CLOUDY    48  46  93 SE3       29.43R
6HR MIN TEMP:  48; 6HR MAX TEMP:  51;

MARYSVILLE     CLOUDY    45  45 100 SE5       29.42R FOG
OLATHE IND     CLOUDY    50  47  89 S3        29.46R
6HR MIN TEMP:  49; 6HR MAX TEMP:  53; 6HR PCP: TRACE;

OLATHE EXE     CLOUDY    50  47  89 VRB5      29.46R
6HR MIN TEMP:  48; 6HR MAX TEMP:  52; 6HR PCP: TRACE;

SALINA         CLOUDY    48  45  89 S7        29.43R
TOPEKA BILLARD CLOUDY    50  47  89 SE7       29.44R
6HR MIN TEMP:  48; 6HR MAX TEMP:  51; 6HR PCP:  0.01;

TOPEKA FORBES  CLOUDY    51  47  86 SE8       29.44S
6HR MIN TEMP:  49; 6HR MAX TEMP:  53; 6HR PCP: TRACE;

$$




USA.gov is the U.S. government's official web portal to all federal, state and local government web resources and services.